Hourly Data Report for October 08, 2001

SHERBROOKE A
QUEBEC

45°26'00.000" N
71°41'00.000" W
241.40 m
7028124
71610
YSC

Download Data

Hourly Data (October 2001)
Hourly Data Report for October 8, 2001
TIME
LST
Temp Definition
°C
Dew Point Definition
°C
Rel Hum Definition
%
Precip. Amount Definition
mm

Wind Dir Definition
10's deg

Wind Spd Definition
km/h
Visibility Definition
km
Stn Press Definition
kPa
Hmdx Definition


Wind Chill Definition


Weather Definition


00:00 0.6 0.0 96   26 7 15.0 98.69     Rain
01:00 1.1 0.2 94   28 13 15.0 98.77      
02:00 1.2 0.0 92   29 19 15.0 98.84      
03:00 1.2 -0.3 90   30 15 15.0 98.96      
04:00 0.9 -0.2 92   27 9 15.0 99.08      
05:00 0.6 -0.6 92   28 17 15.0 99.18      
06:00 0.6 -0.7 91   28 17 15.0 99.28      
07:00 0.4 -0.5 94   27 13 4.8 99.39     Snow, Fog
08:00 0.8 -0.3 92   27 11 24.1 99.50     Snow
09:00 1.6 0.4 92   25 15 19.3 99.56     Snow Pellets
10:00 2.5 0.6 87   27 13 24.1 99.62     Cloudy
11:00 3.4 0.3 80   30 13 24.1 99.67     Cloudy
12:00 4.4 0.1 74   28 19 24.1 99.68     Mostly Cloudy
13:00 6.5 0.8 67   27 17 24.1 99.67     Mostly Cloudy
14:00 5.5 -0.3 66   28 22 24.1 99.66     Mostly Cloudy
15:00 6.2 -1.0 60   27 15 24.1 99.69     Mostly Cloudy
16:00 5.6 -2.2 57   34 13 24.1 99.76     Rain Showers
17:00 2.6 -1.5 74   20 4 15.0 99.86      
18:00 -0.5 -2.1 89   23 7 15.0 99.96   -3  
19:00 -1.9 -3.2 91   20 6 15.0 100.06   -4  
20:00 -2.0 -3.3 91   17 4 15.0 100.09   -3  
21:00 -3.4 -5.0 89   20 4 15.0 100.14   -5  
22:00 -3.3 -4.6 91   21 6 15.0 100.18   -6  
23:00 -4.2 -5.6 90     0 15.0 100.21      

Notes on Data Quality.

Legend

  • E = Estimated
  • M = Missing
  • NA = Not Available*
  • [empty] = Indicates an unobserved value
Date modified: